Wetterdaten: Woche 30.11.09 - 06.12.09 (KW49)
Datum Zeit Temperatur Luftfeuchte Luftdruck Niederschlag Windrichtung Wind
30.11.2009 00:00 3,7 C 89 % 995,9 hPa 0,0 l/m N-NW 5,7 km/h (1 Bft)
30.11.2009 01:00 3,5 C 90 % 995,5 hPa 0,0 l/m N-NW 9,9 km/h (2 Bft)
30.11.2009 02:00 3,2 C 90 % 995,9 hPa 0,0 l/m O-SO 3,7 km/h (1 Bft)
30.11.2009 03:00 2,6 C 91 % 995,9 hPa 0,0 l/m SW 2,0 km/h (1 Bft)
30.11.2009 04:00 2,7 C 93 % 995,2 hPa 0,0 l/m N-NW 10,0 km/h (2 Bft)
30.11.2009 05:00 4,1 C 92 % 995,0 hPa 0,0 l/m N-NW 5,2 km/h (1 Bft)
30.11.2009 06:00 4,3 C 92 % 995,3 hPa 0,2 l/m NW 4,7 km/h (1 Bft)
30.11.2009 07:00 4,2 C 93 % 996,0 hPa 2,6 l/m SW 6,4 km/h (2 Bft)
30.11.2009 08:00 3,8 C 94 % 996,7 hPa 3,2 l/m W 5,3 km/h (1 Bft)
30.11.2009 09:00 3,3 C 93 % 997,1 hPa 2,6 l/m W 4,4 km/h (1 Bft)
30.11.2009 10:00 2,5 C 92 % 997,6 hPa 1,8 l/m N 0,3 km/h (0 Bft)
30.11.2009 11:00 1,6 C 92 % 997,7 hPa 0,0 l/m N 0,0 km/h (0 Bft)
30.11.2009 12:00 1,2 C 94 % 997,6 hPa 0,2 l/m N 0,0 km/h (0 Bft)
30.11.2009 13:00 1,2 C 95 % 997,6 hPa 2,2 l/m N 0,3 km/h (0 Bft)
30.11.2009 14:00 1,1 C 95 % 997,8 hPa 4,8 l/m N 0,0 km/h (0 Bft)
30.11.2009 15:00 0,9 C 95 % 998,1 hPa 3,6 l/m N 0,0 km/h (0 Bft)
30.11.2009 16:00 0,8 C 95 % 998,4 hPa 2,6 l/m N 0,0 km/h (0 Bft)
30.11.2009 17:00 0,7 C 96 % 998,4 hPa 2,0 l/m N 0,0 km/h (0 Bft)
30.11.2009 18:00 0,6 C 96 % 998,6 hPa 2,0 l/m N 0,0 km/h (0 Bft)
30.11.2009 19:00 0,6 C 96 % 999,4 hPa 1,8 l/m N 0,0 km/h (0 Bft)
30.11.2009 20:00 0,6 C 96 % 1000,2 hPa 1,8 l/m N 0,0 km/h (0 Bft)
30.11.2009 21:00 0,5 C 97 % 1000,1 hPa 1,8 l/m N 0,0 km/h (0 Bft)
30.11.2009 22:00 0,5 C 97 % 1000,4 hPa 1,0 l/m N 0,0 km/h (0 Bft)
30.11.2009 23:00 0,4 C 97 % 1001,1 hPa 1,0 l/m N 0,0 km/h (0 Bft)
01.12.2009 00:00 0,4 C 97 % 1001,8 hPa 1,2 l/m N 0,0 km/h (0 Bft)
01.12.2009 01:00 0,4 C 97 % 1002,3 hPa 0,6 l/m N 0,0 km/h (0 Bft)
01.12.2009 02:00 0,4 C 98 % 1002,9 hPa 0,2 l/m N 0,0 km/h (0 Bft)
01.12.2009 03:00 0,3 C 98 % 1003,2 hPa 0,0 l/m N 0,0 km/h (0 Bft)
01.12.2009 04:00 0,3 C 98 % 1003,7 hPa 0,0 l/m N 0,0 km/h (0 Bft)
01.12.2009 05:00 0,4 C 98 % 1004,1 hPa 0,0 l/m N 0,0 km/h (0 Bft)
01.12.2009 06:00 0,4 C 98 % 1005,0 hPa 0,0 l/m N 0,0 km/h (0 Bft)
01.12.2009 07:00 0,4 C 98 % 1005,6 hPa 0,0 l/m N 0,0 km/h (0 Bft)
01.12.2009 08:00 0,5 C 98 % 1006,4 hPa 0,2 l/m N 0,0 km/h (0 Bft)
01.12.2009 09:00 1,0 C 98 % 1007,1 hPa 0,4 l/m N 1,1 km/h (0 Bft)
01.12.2009 10:00 1,3 C 98 % 1008,3 hPa 0,8 l/m S-SW 2,8 km/h (1 Bft)
01.12.2009 11:00 1,6 C 98 % 1008,9 hPa 0,4 l/m S-SW 4,0 km/h (1 Bft)
01.12.2009 12:00 2,2 C 96 % 1009,3 hPa 0,2 l/m S-SW 4,9 km/h (1 Bft)
01.12.2009 13:00 2,5 C 95 % 1009,5 hPa 0,0 l/m W-SW 7,4 km/h (2 Bft)
01.12.2009 14:00 2,4 C 94 % 1009,8 hPa 0,0 l/m W 7,1 km/h (2 Bft)
01.12.2009 15:00 2,1 C 94 % 1010,3 hPa 0,0 l/m W-SW 4,0 km/h (1 Bft)
01.12.2009 16:00 1,4 C 95 % 1011,0 hPa 0,2 l/m W-SW 4,1 km/h (1 Bft)
01.12.2009 17:00 1,1 C 96 % 1011,8 hPa 0,2 l/m W-SW 4,5 km/h (1 Bft)
01.12.2009 18:00 1,0 C 97 % 1012,4 hPa 0,0 l/m N 2,5 km/h (1 Bft)
01.12.2009 19:00 1,1 C 97 % 1013,0 hPa 0,4 l/m W-SW 2,1 km/h (1 Bft)
01.12.2009 20:00 1,1 C 97 % 1013,5 hPa 0,2 l/m N 1,2 km/h (1 Bft)
01.12.2009 21:00 1,0 C 97 % 1013,9 hPa 0,0 l/m W-SW 3,9 km/h (1 Bft)
01.12.2009 22:00 0,9 C 98 % 1014,0 hPa 0,0 l/m N 2,4 km/h (1 Bft)
01.12.2009 23:00 1,0 C 98 % 1014,5 hPa 0,0 l/m W-SW 4,3 km/h (1 Bft)
02.12.2009 00:00 1,1 C 98 % 1014,6 hPa 0,0 l/m W-SW 5,3 km/h (1 Bft)
02.12.2009 01:00 1,2 C 98 % 1014,6 hPa 0,0 l/m SW 8,0 km/h (2 Bft)
02.12.2009 02:00 1,2 C 98 % 1015,0 hPa 0,0 l/m SW 6,2 km/h (2 Bft)
02.12.2009 03:00 1,3 C 98 % 1015,1 hPa 0,0 l/m SW 3,7 km/h (1 Bft)
02.12.2009 04:00 1,1 C 98 % 1015,1 hPa 0,0 l/m SW 5,5 km/h (1 Bft)
02.12.2009 05:00 1,0 C 98 % 1014,8 hPa 0,0 l/m W-SW 2,5 km/h (1 Bft)
02.12.2009 06:00 0,8 C 98 % 1015,1 hPa 0,0 l/m W-NW 5,6 km/h (1 Bft)
02.12.2009 07:00 0,8 C 98 % 1015,1 hPa 0,0 l/m W 4,5 km/h (1 Bft)
02.12.2009 08:00 0,5 C 98 % 1015,0 hPa 0,0 l/m N 1,2 km/h (1 Bft)
02.12.2009 09:00 0,5 C 98 % 1015,2 hPa 0,0 l/m N 1,3 km/h (1 Bft)
02.12.2009 10:00 1,6 C 96 % 1015,2 hPa 0,0 l/m W 2,4 km/h (1 Bft)
02.12.2009 11:00 2,1 C 95 % 1014,9 hPa 0,0 l/m W 4,9 km/h (1 Bft)
02.12.2009 12:00 2,5 C 91 % 1013,9 hPa 0,0 l/m S-SW 9,5 km/h (2 Bft)
02.12.2009 13:00 2,4 C 90 % 1013,3 hPa 0,0 l/m SW 9,3 km/h (2 Bft)
02.12.2009 14:00 1,7 C 92 % 1013,0 hPa 0,0 l/m W 8,7 km/h (2 Bft)
02.12.2009 15:00 1,3 C 94 % 1013,0 hPa 0,0 l/m W-SW 6,0 km/h (2 Bft)
02.12.2009 16:00 1,1 C 93 % 1012,9 hPa 0,0 l/m SW 9,8 km/h (2 Bft)
02.12.2009 17:00 0,8 C 94 % 1013,0 hPa 0,0 l/m SW 5,1 km/h (1 Bft)
02.12.2009 18:00 0,7 C 95 % 1012,9 hPa 0,0 l/m N 2,4 km/h (1 Bft)
02.12.2009 19:00 0,6 C 95 % 1012,6 hPa 0,0 l/m N 1,7 km/h (1 Bft)
02.12.2009 20:00 0,1 C 95 % 1012,5 hPa 0,0 l/m N 0,3 km/h (0 Bft)
02.12.2009 21:00 -0,5 C 95 % 1012,3 hPa 0,0 l/m S-SW 0,8 km/h (0 Bft)
02.12.2009 22:00 -0,9 C 97 % 1012,1 hPa 0,0 l/m N 0,1 km/h (0 Bft)
02.12.2009 23:00 -1,2 C 97 % 1012,1 hPa 0,0 l/m N 0,5 km/h (0 Bft)
03.12.2009 00:00 -1,1 C 97 % 1011,9 hPa 0,0 l/m S-SW 2,0 km/h (1 Bft)
03.12.2009 01:00 -1,8 C 97 % 1011,8 hPa 0,0 l/m N 2,0 km/h (1 Bft)
03.12.2009 02:00 -1,9 C 97 % 1011,6 hPa 0,0 l/m SO 2,9 km/h (1 Bft)
03.12.2009 03:00 -1,0 C 98 % 1011,5 hPa 0,0 l/m SO 9,3 km/h (2 Bft)
03.12.2009 04:00 -1,2 C 98 % 1011,1 hPa 0,0 l/m S-SW 5,1 km/h (1 Bft)
03.12.2009 05:00 -1,7 C 98 % 1010,9 hPa 0,0 l/m S 3,2 km/h (1 Bft)
03.12.2009 06:00 -2,2 C 98 % 1010,7 hPa 0,0 l/m N 1,1 km/h (0 Bft)
03.12.2009 07:00 -2,5 C 98 % 1010,7 hPa 0,0 l/m N 0,5 km/h (0 Bft)
03.12.2009 08:00 -2,3 C 98 % 1010,9 hPa 0,0 l/m N 0,3 km/h (0 Bft)
03.12.2009 09:00 -1,4 C 98 % 1011,2 hPa 0,2 l/m S 2,5 km/h (1 Bft)
03.12.2009 10:00 1,1 C 93 % 1011,3 hPa 0,0 l/m S-SO 4,0 km/h (1 Bft)
03.12.2009 11:00 2,8 C 85 % 1010,6 hPa 0,0 l/m S 14,8 km/h (3 Bft)
03.12.2009 12:00 3,3 C 87 % 1009,9 hPa 0,0 l/m S 11,8 km/h (2 Bft)
03.12.2009 13:00 3,6 C 86 % 1009,4 hPa 0,0 l/m S-SO 8,3 km/h (2 Bft)
03.12.2009 14:00 3,2 C 88 % 1008,9 hPa 0,0 l/m S-SW 6,1 km/h (2 Bft)
03.12.2009 15:00 3,2 C 88 % 1008,6 hPa 0,0 l/m S-SW 4,9 km/h (1 Bft)
03.12.2009 16:00 1,6 C 92 % 1008,4 hPa 0,0 l/m N 0,5 km/h (0 Bft)
03.12.2009 17:00 0,4 C 95 % 1008,2 hPa 0,0 l/m N 0,0 km/h (0 Bft)
03.12.2009 18:00 0,6 C 97 % 1008,0 hPa 0,0 l/m N 0,0 km/h (0 Bft)
03.12.2009 19:00 0,8 C 97 % 1007,6 hPa 0,0 l/m N 0,5 km/h (0 Bft)
03.12.2009 20:00 1,0 C 97 % 1007,3 hPa 0,0 l/m N 0,5 km/h (0 Bft)
03.12.2009 21:00 1,5 C 97 % 1007,3 hPa 0,0 l/m SW 6,0 km/h (2 Bft)
03.12.2009 22:00 2,3 C 95 % 1007,3 hPa 1,4 l/m SO 4,9 km/h (1 Bft)
03.12.2009 23:00 1,9 C 96 % 1007,4 hPa 1,6 l/m S-SO 4,4 km/h (1 Bft)
04.12.2009 00:00 1,8 C 97 % 1007,1 hPa 1,0 l/m S 5,1 km/h (1 Bft)
04.12.2009 01:00 1,9 C 97 % 1007,0 hPa 1,0 l/m S-SW 6,4 km/h (2 Bft)
04.12.2009 02:00 2,2 C 98 % 1006,8 hPa 1,0 l/m S-SW 4,0 km/h (1 Bft)
04.12.2009 03:00 2,2 C 98 % 1006,6 hPa 0,0 l/m SW 9,3 km/h (2 Bft)
04.12.2009 04:00 2,4 C 98 % 1006,6 hPa 0,0 l/m SW 11,2 km/h (2 Bft)
04.12.2009 05:00 2,1 C 98 % 1006,9 hPa 0,0 l/m SW 5,2 km/h (1 Bft)
04.12.2009 06:00 2,2 C 98 % 1007,3 hPa 0,0 l/m W-SW 6,9 km/h (2 Bft)
04.12.2009 07:00 2,1 C 98 % 1007,5 hPa 0,0 l/m S-SW 2,3 km/h (1 Bft)
04.12.2009 08:00 1,8 C 98 % 1008,2 hPa 0,0 l/m O 2,9 km/h (1 Bft)
04.12.2009 09:00 1,9 C 98 % 1008,8 hPa 0,0 l/m N 0,0 km/h (0 Bft)
04.12.2009 10:00 2,3 C 98 % 1009,6 hPa 0,0 l/m O 2,5 km/h (1 Bft)
04.12.2009 11:00 3,1 C 94 % 1010,0 hPa 0,0 l/m O 3,5 km/h (1 Bft)
04.12.2009 12:00 3,5 C 85 % 1010,3 hPa 0,0 l/m W-NW 5,3 km/h (1 Bft)
04.12.2009 13:00 3,7 C 83 % 1010,6 hPa 0,0 l/m N-NW 3,7 km/h (1 Bft)
04.12.2009 14:00 3,7 C 84 % 1011,1 hPa 0,0 l/m N-NW 4,4 km/h (1 Bft)
04.12.2009 15:00 3,7 C 86 % 1011,8 hPa 0,0 l/m N-NW 2,1 km/h (1 Bft)
04.12.2009 16:00 3,0 C 89 % 1012,6 hPa 0,0 l/m N 0,4 km/h (0 Bft)
04.12.2009 17:00 1,8 C 91 % 1013,3 hPa 0,0 l/m N 0,0 km/h (0 Bft)
04.12.2009 18:00 0,9 C 92 % 1014,2 hPa 0,0 l/m N 0,0 km/h (0 Bft)
04.12.2009 19:00 0,2 C 93 % 1014,8 hPa 0,0 l/m N 0,0 km/h (0 Bft)
04.12.2009 20:00 -0,2 C 94 % 1015,3 hPa 0,0 l/m N 0,0 km/h (0 Bft)
04.12.2009 21:00 -0,4 C 95 % 1015,7 hPa 0,0 l/m N 0,7 km/h (0 Bft)
04.12.2009 22:00 -0,6 C 96 % 1015,9 hPa 0,0 l/m N 0,3 km/h (0 Bft)
04.12.2009 23:00 -0,6 C 96 % 1016,2 hPa 0,0 l/m N 0,1 km/h (0 Bft)
05.12.2009 00:00 -0,7 C 96 % 1016,2 hPa 0,0 l/m N-NW 0,8 km/h (0 Bft)
05.12.2009 01:00 -0,7 C 97 % 1015,8 hPa 0,0 l/m N-NW 0,4 km/h (0 Bft)
05.12.2009 02:00 -0,2 C 98 % 1015,8 hPa 0,0 l/m N-NW 2,4 km/h (1 Bft)
05.12.2009 03:00 0,1 C 98 % 1015,9 hPa 0,0 l/m SW 4,1 km/h (1 Bft)
05.12.2009 04:00 0,2 C 98 % 1016,2 hPa 0,0 l/m S-SW 6,4 km/h (2 Bft)
05.12.2009 05:00 0,1 C 98 % 1016,2 hPa 0,0 l/m S-SW 6,4 km/h (2 Bft)
05.12.2009 06:00 0,1 C 98 % 1016,1 hPa 0,0 l/m SW 6,9 km/h (2 Bft)
05.12.2009 07:00 0,0 C 98 % 1015,8 hPa 0,0 l/m SW 9,9 km/h (2 Bft)
05.12.2009 08:00 0,1 C 98 % 1016,2 hPa 0,0 l/m W-SW 10,5 km/h (2 Bft)
05.12.2009 09:00 0,3 C 98 % 1016,3 hPa 0,0 l/m W-SW 8,9 km/h (2 Bft)
05.12.2009 10:00 0,5 C 98 % 1016,5 hPa 0,0 l/m SW 11,4 km/h (2 Bft)
05.12.2009 11:00 0,6 C 98 % 1016,4 hPa 0,0 l/m S-SW 13,4 km/h (3 Bft)
05.12.2009 12:00 1,2 C 96 % 1016,3 hPa 0,0 l/m SW 13,4 km/h (3 Bft)
05.12.2009 13:00 2,0 C 93 % 1016,3 hPa 0,0 l/m SW 9,7 km/h (2 Bft)
05.12.2009 14:00 2,4 C 91 % 1016,1 hPa 0,0 l/m S-SW 11,3 km/h (2 Bft)
05.12.2009 15:00 2,3 C 92 % 1016,1 hPa 0,0 l/m S-SW 13,3 km/h (3 Bft)
05.12.2009 16:00 2,1 C 90 % 1015,9 hPa 0,0 l/m SW 13,7 km/h (3 Bft)
05.12.2009 17:00 1,9 C 87 % 1015,9 hPa 0,0 l/m SW 16,6 km/h (3 Bft)
05.12.2009 18:00 2,2 C 83 % 1015,9 hPa 0,0 l/m W-SW 21,2 km/h (4 Bft)
05.12.2009 19:00 2,2 C 83 % 1016,3 hPa 0,0 l/m SW 9,7 km/h (2 Bft)
05.12.2009 20:00 1,7 C 86 % 1016,4 hPa 0,0 l/m SW 6,8 km/h (2 Bft)
05.12.2009 21:00 1,2 C 89 % 1016,5 hPa 0,0 l/m SW 7,0 km/h (2 Bft)
05.12.2009 22:00 0,8 C 90 % 1016,7 hPa 0,0 l/m S-SO 3,6 km/h (1 Bft)
05.12.2009 23:00 0,4 C 92 % 1016,2 hPa 0,0 l/m S 5,3 km/h (1 Bft)
06.12.2009 00:00 0,3 C 91 % 1016,2 hPa 0,0 l/m N 1,6 km/h (1 Bft)
06.12.2009 01:00 -0,0 C 93 % 1016,2 hPa 0,0 l/m SO 1,6 km/h (1 Bft)
06.12.2009 02:00 0,2 C 93 % 1016,4 hPa 0,0 l/m SO 2,4 km/h (1 Bft)
06.12.2009 03:00 1,7 C 94 % 1016,9 hPa 0,6 l/m SW 14,8 km/h (3 Bft)
06.12.2009 04:00 1,9 C 93 % 1016,3 hPa 0,2 l/m S-SW 13,0 km/h (3 Bft)
06.12.2009 05:00 1,7 C 95 % 1015,8 hPa 0,2 l/m S-SO 5,4 km/h (1 Bft)
06.12.2009 06:00 1,8 C 95 % 1015,4 hPa 0,0 l/m O 7,4 km/h (2 Bft)
06.12.2009 07:00 1,7 C 95 % 1015,5 hPa 0,0 l/m S-SW 4,0 km/h (1 Bft)
06.12.2009 08:00 1,3 C 95 % 1015,4 hPa 0,0 l/m N 1,1 km/h (0 Bft)
06.12.2009 09:00 1,6 C 96 % 1015,2 hPa 0,0 l/m S 1,3 km/h (1 Bft)
06.12.2009 10:00 2,3 C 96 % 1015,0 hPa 0,0 l/m S 0,4 km/h (0 Bft)
06.12.2009 11:00 3,4 C 94 % 1014,5 hPa 0,0 l/m S 2,4 km/h (1 Bft)
06.12.2009 12:00 4,2 C 91 % 1014,3 hPa 0,0 l/m SO 2,9 km/h (1 Bft)
06.12.2009 13:00 5,0 C 87 % 1013,5 hPa 0,0 l/m S-SW 5,3 km/h (1 Bft)
06.12.2009 14:00 5,0 C 86 % 1013,1 hPa 0,0 l/m S-SO 6,4 km/h (2 Bft)
06.12.2009 15:00 4,8 C 87 % 1012,5 hPa 0,0 l/m SW 7,8 km/h (2 Bft)
06.12.2009 16:00 5,1 C 85 % 1012,8 hPa 0,0 l/m S-SW 9,0 km/h (2 Bft)
06.12.2009 17:00 4,7 C 88 % 1012,3 hPa 0,0 l/m S 8,6 km/h (2 Bft)
06.12.2009 18:00 4,5 C 89 % 1011,9 hPa 0,0 l/m S 10,6 km/h (2 Bft)
06.12.2009 19:00 6,8 C 75 % 1012,3 hPa 0,0 l/m W-SW 22,1 km/h (4 Bft)
06.12.2009 20:00 6,9 C 86 % 1013,2 hPa 0,6 l/m W 22,6 km/h (4 Bft)
06.12.2009 21:00 7,2 C 92 % 1013,6 hPa 0,2 l/m W-SW 29,6 km/h (5 Bft)
06.12.2009 22:00 7,1 C 92 % 1013,7 hPa 0,0 l/m W-SW 19,2 km/h (3 Bft)
06.12.2009 23:00 6,8 C 93 % 1014,3 hPa 0,2 l/m W-SW 15,7 km/h (3 Bft)
Min-Datum _ 03.12.09 06.12.09 30.11.09 - - 30.11.09
_ Min-Zeit 07:20 19:35 05:20 - - 02:55
Minimum _ -2,5 C 72 % 994,8 hPa - - 0,0 km/h (0 Bft)
Max-Datum _ 06.12.09 03.12.09 06.12.09 30.11.09 - 06.12.09
_ Max-Zeit 19:45 09:40 03:25 14:15 - 21:10
Maximum _ 7,3 C 99 % 1017,0 hPa 4,8 l/m - 35,4 km/h
W-SW (5 Bft)
Durchschnitt _ 1,5 C 94 % 1010,1 hPa #48,4 l/m SW 4,9 km/h (1 Bft)